GW4987 Weather Reports


time (UTC)temp
C
wind
direction
speed
KPH
gust
KPH
rain 1hr
cm
rain 24hr
cm
rain mn
cm
humidity
%
barometer
mb
20260503202012 21 211 16.1 37.0 0.00 0.00 0.00 25 1017.3
20260503201555 21 211 17.7 37.0 0.00 0.00 0.00 23 1017.0
20260503201055 22 176 29.0 35.4 0.00 0.00 0.00 21 1017.4
20260503200512 21 184 9.7 46.7 0.00 0.00 0.00 26 1017.1
20260503200013 21 176 19.3 38.6 0.00 0.00 0.00 24 1017.1
20260503195555 21 184 20.9 27.4 0.00 0.00 0.00 28 1017.4
20260503195013 22 172 22.5 35.4 0.00 0.00 0.00 26 1017.4
20260503194555 21 139 14.5 29.0 0.00 0.00 0.00 26 1017.7
20260503194055 22 196 16.1 29.0 0.00 0.00 0.00 23 1017.5
20260503193555 21 142 9.7 48.3 0.00 0.00 0.00 25 1017.6
20260503193013 22 152 12.9 27.4 0.00 0.00 0.00 27 1017.7
20260503192555 21 201 16.1 38.6 0.00 0.00 0.00 28 1017.6
20260503191013 21 143 8.0 45.1 0.00 0.00 0.00 26 1017.9
20260503190555 21 216 16.1 41.8 0.00 0.00 0.00 27 1017.9
20260503190055 21 129 27.4 33.8 0.00 0.00 0.00 28 1018.0
20260503185555 21 130 14.5 38.6 0.00 0.00 0.00 28 1017.8
20260503185055 21 129 20.9 41.8 0.00 0.00 0.00 28 1018.0
20260503184556 21 193 20.9 37.0 0.00 0.00 0.00 31 1017.9
20260503182513 21 153 12.9 20.9 0.00 0.00 0.00 31 1017.9
20260503182013 20 174 14.5 19.3 0.00 0.00 0.00 33 1018.0
20260503181555 20 116 14.5 19.3 0.00 0.00 0.00 34 1018.1
20260503175555 21 101 16.1 19.3 0.00 0.00 0.00 31 1018.0
20260503175013 21 123 19.3 29.0 0.00 0.00 0.00 32 1018.0
20260503174556 21 72 8.0 30.6 0.00 0.00 0.00 32 1018.0
20260503174056 21 92 11.3 29.0 0.00 0.00 0.00 34 1018.0
20260503173556 21 91 8.0 14.5 0.00 0.00 0.00 32 1018.1
20260503173012 21 139 6.4 27.4 0.00 0.00 0.00 33 1018.2
20260503172555 21 95 8.0 22.5 0.00 0.00 0.00 33 1018.1
20260503172056 20 127 16.1 35.4 0.00 0.00 0.00 35 1018.1
20260503171555 21 63 9.7 24.1 0.00 0.00 0.00 34 1018.0
20260503171056 20 135 9.7 29.0 0.00 0.00 0.00 34 1018.1
20260503170555 20 131 17.7 19.3 0.00 0.00 0.00 35 1018.4
20260503150512 18 127 8.0 9.7 0.00 0.00 0.00 39 1018.5
20260503131013 13 124 6.4 14.5 0.00 0.00 0.00 38 1018.1
20260503130555 13 112 8.0 14.5 0.00 0.00 0.00 38 1018.0
20260503081555 15 197 9.7 11.3 0.00 0.00 0.00 31 1018.9
20260503081014 15 205 8.0 9.7 0.00 0.00 0.00 32 1019.2
20260503080555 15 203 6.4 14.5 0.00 0.00 0.00 32 1018.7
20260503072555 14 209 9.7 9.7 0.00 0.00 0.00 34 1019.0
20260503072056 14 164 4.8 9.7 0.00 0.00 0.00 34 1019.3
20260503071555 14 188 9.7 11.3 0.00 0.00 0.00 34 1019.2
20260503071055 13 177 4.8 6.4 0.00 0.00 0.00 35 1019.2
20260503070556 13 148 0.0 6.4 0.00 0.00 0.00 35 1019.0
20260503053555 15 200 8.0 14.5 0.00 0.00 0.00 31 1019.0
20260503053055 16 191 4.8 17.7 0.00 0.00 0.00 31 1019.0
20260503052555 16 196 9.7 14.5 0.00 0.00 0.00 30 1019.3
20260503052014 16 153 4.8 12.9 0.00 0.00 0.00 30 1019.4
20260503051555 16 168 8.0 12.9 0.00 0.00 0.00 30 1019.3
20260503051056 16 218 16.1 17.7 0.00 0.00 0.00 30 1019.4
20260503050513 16 145 6.4 14.5 0.00 0.00 0.00 30 1019.4
20260503050055 16 180 8.0 12.9 0.00 0.00 0.00 30 1019.4
20260503045555 16 175 12.9 20.9 0.00 0.00 0.00 30 1019.2
20260503045014 16 273 9.7 27.4 0.00 0.00 0.00 30 1019.3
20260503044555 16 213 17.7 20.9 0.00 0.00 0.00 31 1019.0
20260503044056 16 240 12.9 24.1 0.00 0.00 0.00 30 1019.0
20260503042055 16 200 17.7 27.4 0.00 0.00 0.00 30 1018.9
20260503041514 16 215 8.0 22.5 0.00 0.00 0.00 30 1018.9
20260503035555 17 198 17.7 20.9 0.00 0.00 0.00 29 1018.8
20260503035055 16 223 8.0 14.5 0.00 0.00 0.00 30 1018.5
20260503034556 16 191 12.9 16.1 0.00 0.00 0.00 30 1018.5
20260503032514 17 221 6.4 22.5 0.00 0.00 0.00 29 1018.3
20260503032014 17 218 12.9 24.1 0.00 0.00 0.00 29 1018.2
20260503031556 17 188 8.0 16.1 0.00 0.00 0.00 30 1018.2
20260503031013 17 199 14.5 24.1 0.00 0.00 0.00 29 1018.2
20260503030555 17 187 17.7 25.7 0.00 0.00 0.00 30 1018.3
20260503030055 16 194 11.3 14.5 0.00 0.00 0.00 30 1018.0
20260503025555 17 221 9.7 17.7 0.00 0.00 0.00 30 1018.0
20260503025013 17 205 9.7 19.3 0.00 0.00 0.00 30 1018.0
20260503024555 17 197 14.5 20.9 0.00 0.00 0.00 30 1017.9
20260503024055 17 194 11.3 14.5 0.00 0.00 0.00 30 1018.0
20260503023556 17 225 17.7 17.7 0.00 0.00 0.00 30 1018.0
20260503014513 18 194 11.3 19.3 0.00 0.00 0.00 28 1017.9
20260503014013 18 221 8.0 14.5 0.00 0.00 0.00 28 1017.7
20260503013556 19 158 4.8 12.9 0.00 0.00 0.00 28 1017.8
20260503013014 19 195 9.7 25.7 0.00 0.00 0.00 28 1017.7
20260503012556 19 158 6.4 12.9 0.00 0.00 0.00 28 1017.9
20260503012056 19 252 4.8 14.5 0.00 0.00 0.00 28 1018.0
20260503011555 19 196 3.2 12.9 0.00 0.00 0.00 28 1017.9
20260503011013 19 224 12.9 16.1 0.00 0.00 0.00 27 1017.7
20260503010555 19 181 6.4 16.1 0.00 0.00 0.00 27 1017.8
20260503010055 19 156 8.0 17.7 0.00 0.00 0.00 27 1017.8
20260503005555 20 169 12.9 17.7 0.00 0.00 0.00 27 1017.8
20260503005014 20 184 4.8 8.0 0.00 0.00 0.00 27 1017.8
20260503004555 20 216 12.9 14.5 0.00 0.00 0.00 27 1017.8
20260503004056 20 215 8.0 12.9 0.00 0.00 0.00 27 1017.7
20260503003535 20 214 11.3 19.3 0.00 0.00 0.00 26 1017.9
20260503003055 20 175 16.1 22.5 0.00 0.00 0.00 26 1017.8
20260503002555 20 209 8.0 11.3 0.00 0.00 0.00 25 1017.7
20260503002014 21 156 8.0 11.3 0.00 0.00 0.00 25 1017.8
20260503001555 20 126 8.0 11.3 0.00 0.00 0.00 26 1017.6
20260503001056 20 206 8.0 14.5 0.00 0.00 0.00 25 1017.8
20260503000514 20 205 11.3 12.9 0.00 0.00 0.00 25 1017.7
20260503000014 20 128 9.7 9.7 0.00 0.00 0.00 25 1017.7
20260502235556 20 129 17.7 22.5 0.00 0.00 0.00 25 1017.7
20260502235014 20 185 8.0 16.1 0.00 0.00 0.00 25 1017.7
20260502234555 20 227 6.4 11.3 0.00 0.00 0.00 25 1017.8
20260502234056 20 93 11.3 12.9 0.00 0.00 0.00 24 1018.0
20260502233555 20 154 6.4 9.7 0.00 0.00 0.00 24 1017.6
20260502233014 20 137 6.4 12.9 0.00 0.00 0.00 25 1017.7
20260502232555 20 91 8.0 16.1 0.00 0.00 0.00 24 1017.6
20260502231014 21 134 4.8 6.4 0.00 0.00 0.00 24 1017.7
20260502230555 21 129 8.0 8.0 0.00 0.00 0.00 23 1017.7
20260502230056 21 175 4.8 8.0 0.00 0.00 0.00 23 1017.8
20260502224013 21 125 8.0 11.3 0.00 0.00 0.00 23 1017.8
20260502223555 22 120 6.4 9.7 0.00 0.00 0.00 22 1017.9
20260502223056 21 176 3.2 20.9 0.00 0.00 0.00 22 1018.0
20260502222513 22 92 11.3 11.3 0.00 0.00 0.00 21 1018.0
20260502222013 22 101 9.7 16.1 0.00 0.00 0.00 22 1018.0
20260502221556 22 123 8.0 12.9 0.00 0.00 0.00 22 1018.0
20260502215555 21 80 9.7 12.9 0.00 0.00 0.00 22 1018.3
20260502215013 21 63 17.7 17.7 0.00 0.00 0.00 22 1018.2
20260502214555 21 91 6.4 16.1 0.00 0.00 0.00 22 1018.3
20260502214055 21 67 8.0 16.1 0.00 0.00 0.00 22 1018.4
20260502213556 20 115 12.9 25.7 0.00 0.00 0.00 23 1018.5
20260502213013 22 111 6.4 17.7 0.00 0.00 0.00 22 1018.3
20260502212555 22 260 3.2 19.3 0.00 0.00 0.00 22 1018.6
20260502212056 21 31 16.1 24.1 0.00 0.00 0.00 22 1018.7
20260502211555 21 73 19.3 19.3 0.00 0.00 0.00 22 1018.7
20260502211055 21 80 22.5 32.2 0.00 0.00 0.00 22 1018.7
20260502210556 22 93 17.7 20.9 0.00 0.00 0.00 22 1018.8
20260502210013 21 130 4.8 14.5 0.00 0.00 0.00 22 1019.0
20260502205555 20 168 4.8 16.1 0.00 0.00 0.00 23 1018.9
20260502205055 21 71 9.7 19.3 0.00 0.00 0.00 22 1019.2
20260502204514 20 77 11.3 22.5 0.00 0.00 0.00 23 1019.2
20260502204014 20 95 12.9 20.9 0.00 0.00 0.00 23 1019.0